Location: Góry Miechowskie
(50.3599°N, 20.1803°E)
Time: 12:39:05
(UTC+00:00)

Cosmos 1821 Rocket - Pass Details

Date: 15 June 2024
Orbit: 945 x 1003 km, 82.9° (Epoch: 15 July)

Event Time Altitude Azimuth Distance (km) Brightness Sun altitude
Exits shadow 01:01:26 10° 192° (SSW) 2,654 5.7 -9.9°
Maximum altitude 01:07:30 82° 280° (W) 968 4.0 -9.4°
Drops below altitude 10° 01:13:42 10° 8° (N) 2,705 7.5 -8.8°
Sets 01:16:14 0° 10° (N) 3,663 8.3 -8.6°
